Belen, NM

9:27 AM MDT on April 27, 2017 (GMT -0600)
Belen

Weather History for KE80 - November, 2011

Change the Weather History Date:

Thursday, November 17, 2011

  Actual Average (KABQ) Record (KABQ)
Temperature  
Mean Temperature 42 °F -  
Max Temperature 59 °F 57 °F 70 °F (1981)
Min Temperature 26 °F 30 °F 13 °F (1915)
Degree Days  
Heating Degree Days 22    
Moisture  
Dew Point 10 °F    
Average Humidity 30    
Maximum Humidity 39    
Minimum Humidity 19    
Precipitation  
Precipitation 0.00 in - - ()
Sea Level Pressure  
Sea Level Pressure 30.25 in    
Wind  
Wind Speed 6 mph (West)    
Max Wind Speed 14 mph    
Max Gust Speed 16 mph    
Visibility 10 miles    
Events      
Averages and records for this station are not official NWS values.
T = Trace of Precipitation, MM = Missing Value Source: NWS Daily Summary

Daily Weather History Graph

Daily Weather History Graph

Search for Another Location

Airport or City:

Trip Planner

Search our weather history database for the weather conditions in past years. The results will help you decide how hot, cold, wet, or windy it might be!

Date:

Astronomy

Nov. 17, 2011 Rise Set
Actual Time 6:42 AM MST 5:01 PM MST
Civil Twilight 6:15 AM MST 5:28 PM MST
Nautical Twilight 5:45 AM MST 5:58 PM MST
Astronomical Twilight 5:15 AM MST 6:28 PM MST
Moon 11:19 PM MST (11/17) 11:57 AM MST (11/17)
Length of Visible Light 11h 12m
Length of Day
10h 18m
Waning Gibbous, 59% of the Moon is Illuminated
Nov 17
Waning Gibbous
Nov 18
Last Quarter
Nov 24
New
Dec 2
First Quarter
Dec 10
Full

Hourly Weather History & Observations

Time (MST) Temp. Windchill Dew Point Humidity Pressure Visibility Wind Dir Wind Speed Gust Speed Precip Events Conditions
12:15 AM 33.3 °F 27.9 °F 1.8 °F 26% 30.31 in 10.0 mi NW 5.8 mph - N/A   Clear
12:35 AM 31.3 °F 23.3 °F 2.3 °F 29% 30.30 in 10.0 mi NW 9.2 mph - N/A   Clear
12:55 AM 30.4 °F 22.2 °F 2.5 °F 31% 30.30 in 10.0 mi WNW 9.2 mph - N/A   Clear
1:15 AM 29.8 °F 23.0 °F 1.8 °F 30% 30.30 in 10.0 mi WNW 6.9 mph - N/A   Clear
1:35 AM 31.5 °F 26.8 °F 1.4 °F 28% 30.31 in 10.0 mi NW 4.6 mph - N/A   Clear
1:55 AM 31.5 °F 25.8 °F 1.4 °F 28% 30.30 in 10.0 mi NNW 5.8 mph - N/A   Clear
2:15 AM 30.2 °F 21.9 °F 1.4 °F 29% 30.31 in 10.0 mi NW 9.2 mph - N/A   Clear
2:35 AM 29.5 °F 22.5 °F 1.4 °F 30% 30.31 in 10.0 mi NNW 6.9 mph - N/A   Clear
2:55 AM 28.4 °F 21.2 °F 2.1 °F 33% 30.31 in 10.0 mi North 6.9 mph - N/A   Clear
3:15 AM 27.5 °F 22.2 °F 2.8 °F 35% 30.31 in 10.0 mi NE 4.6 mph - N/A   Clear
3:35 AM 28.0 °F 21.7 °F 3.7 °F 36% 30.31 in 10.0 mi North 5.8 mph - N/A   Clear
3:55 AM 26.6 °F - 3.9 °F 38% 30.31 in 10.0 mi Calm Calm - N/A   Clear
4:15 AM 28.2 °F 22.0 °F 4.5 °F 36% 30.31 in 10.0 mi North 5.8 mph - N/A   Clear
4:35 AM 28.6 °F 23.5 °F 5.2 °F 37% 30.32 in 10.0 mi NNW 4.6 mph - N/A   Clear
4:55 AM 27.0 °F 18.7 °F 4.8 °F 39% 30.32 in 10.0 mi NW 8.1 mph - N/A   Clear
5:15 AM 26.2 °F 18.6 °F 3.4 °F 38% 30.31 in 10.0 mi NW 6.9 mph - N/A   Clear
5:35 AM 26.2 °F 18.6 °F 2.5 °F 36% 30.32 in 10.0 mi NW 6.9 mph - N/A   Clear
5:55 AM 26.4 °F 18.9 °F 2.3 °F 36% 30.32 in 10.0 mi NW 6.9 mph - N/A   Clear
6:15 AM 26.2 °F 17.1 °F 2.7 °F 36% 30.32 in 10.0 mi NW 9.2 mph - N/A   Clear
6:35 AM 27.1 °F 19.7 °F 3.2 °F 36% 30.33 in 10.0 mi NW 6.9 mph - N/A   Clear
6:55 AM 27.1 °F - 3.4 °F 36% 30.32 in 10.0 mi Calm Calm - N/A   Clear
7:15 AM 26.8 °F - 3.4 °F 37% 30.32 in 10.0 mi Calm Calm - N/A   Clear
7:35 AM 28.2 °F 23.1 °F 4.6 °F 37% 30.33 in 10.0 mi NW 4.6 mph - N/A   Clear
7:55 AM 32.0 °F 27.5 °F 8.8 °F 38% 30.33 in 10.0 mi NW 4.6 mph - N/A   Clear
8:15 AM 33.8 °F 29.6 °F 9.5 °F 36% 30.33 in 10.0 mi NW 4.6 mph - N/A   Clear
8:35 AM 35.1 °F - 11.3 °F 37% 30.32 in 10.0 mi Calm Calm - N/A   Clear
8:55 AM 37.2 °F 33.6 °F 13.1 °F 37% 30.32 in 10.0 mi NW 4.6 mph - N/A   Clear
9:15 AM 38.5 °F - 13.1 °F 35% 30.33 in 10.0 mi Calm Calm - N/A   Clear
9:35 AM 40.1 °F - 14.7 °F 36% 30.32 in 10.0 mi Calm Calm - N/A   Clear
9:55 AM 41.4 °F - 16.0 °F 36% 30.32 in 10.0 mi Calm Calm - N/A   Clear
10:15 AM 41.7 °F - 16.3 °F 36% 30.31 in 10.0 mi Calm Calm - N/A   Clear
10:35 AM 43.3 °F - 16.5 °F 34% 30.30 in 10.0 mi Calm Calm - N/A   Clear
10:55 AM 45.1 °F - 16.2 °F 31% 30.29 in 10.0 mi Calm Calm - N/A   Clear
11:15 AM 46.6 °F - 15.8 °F 29% 30.27 in 10.0 mi Calm Calm - N/A   Clear
11:35 AM 48.2 °F - 14.9 °F 26% 30.25 in 10.0 mi ESE 4.6 mph - N/A   Clear
11:55 AM 50.0 °F - 14.0 °F 24% 30.23 in 10.0 mi South 5.8 mph - N/A   Clear
12:15 PM 51.3 °F - 13.3 °F 22% 30.22 in 10.0 mi SE 5.8 mph - N/A   Clear
12:35 PM 52.5 °F - 13.5 °F 21% 30.20 in 10.0 mi South 8.1 mph - N/A   Clear
1:15 PM 55.0 °F - 14.4 °F 20% 30.17 in 10.0 mi South 6.9 mph - N/A   Clear
1:35 PM 56.7 °F - 14.7 °F 19% 30.15 in 10.0 mi South 10.4 mph - N/A   Clear
1:55 PM 57.2 °F - 15.6 °F 20% 30.14 in 10.0 mi South 12.7 mph 16.1 mph N/A   Clear
2:15 PM 58.6 °F - 17.2 °F 20% 30.12 in 10.0 mi South 13.8 mph - N/A   Clear
2:35 PM 59.0 °F - 17.6 °F 20% 30.12 in 10.0 mi South 11.5 mph - N/A   Clear
2:55 PM 59.4 °F - 18.0 °F 20% 30.11 in 10.0 mi South 10.4 mph - N/A   Clear
3:15 PM 59.7 °F - 18.1 °F 20% 30.10 in 10.0 mi South 6.9 mph - N/A   Clear
3:35 PM 59.7 °F - 17.8 °F 20% 30.09 in 10.0 mi South 8.1 mph - N/A   Clear
3:55 PM 59.5 °F - 18.1 °F 20% 30.09 in 10.0 mi South 9.2 mph - N/A   Clear
4:15 PM 59.2 °F - 19.0 °F 21% 30.08 in 10.0 mi SSE 9.2 mph - N/A   Clear
4:35 PM 58.3 °F - 19.8 °F 22% 30.08 in 10.0 mi SSE 6.9 mph - N/A   Clear
4:55 PM 56.3 °F - 20.7 °F 25% 30.07 in 10.0 mi SSE 6.9 mph - N/A   Clear
5:15 PM 53.2 °F - 20.8 °F 28% 30.07 in 10.0 mi SSE 6.9 mph - N/A   Clear
5:35 PM 50.7 °F - 21.0 °F 31% 30.07 in 10.0 mi South 5.8 mph - N/A   Clear
5:55 PM 49.3 °F - 21.0 °F 33% 30.07 in 10.0 mi SSE 4.6 mph - N/A   Clear
6:15 PM 48.9 °F - 21.0 °F 33% 30.07 in 10.0 mi South 6.9 mph - N/A   Clear
6:35 PM 47.7 °F - 21.0 °F 35% 30.07 in 10.0 mi SSE 5.8 mph - N/A   Clear
6:55 PM 47.5 °F - 21.6 °F 36% 30.07 in 10.0 mi SSE 4.6 mph - N/A   Clear
7:15 PM 46.4 °F 43.5 °F 21.7 °F 38% 30.07 in 10.0 mi South 5.8 mph - N/A   Clear
7:35 PM 46.0 °F 41.9 °F 22.1 °F 39% 30.07 in 10.0 mi SSE 8.1 mph - N/A   Clear
7:55 PM 43.5 °F 38.9 °F 21.7 °F 42% 30.07 in 10.0 mi SSE 8.1 mph - N/A   Clear
8:15 PM 41.2 °F 36.6 °F 21.6 °F 46% 30.07 in 10.0 mi South 6.9 mph - N/A   Clear
8:35 PM 41.4 °F 36.2 °F 22.5 °F 47% 30.06 in 10.0 mi SSE 8.1 mph - N/A   Clear
9:35 PM 41.7 °F - 23.4 °F 48% 30.06 in 10.0 mi Calm Calm - N/A   Clear
9:55 PM 40.5 °F - 23.0 °F 50% 30.06 in 10.0 mi Calm Calm - N/A   Clear
10:15 PM 42.8 °F 39.3 °F 24.1 °F 48% 30.05 in 10.0 mi South 5.8 mph - N/A   Clear
10:35 PM 41.7 °F 37.3 °F 24.1 °F 50% 30.05 in 10.0 mi South 6.9 mph - N/A   Clear
10:55 PM 41.2 °F 39.2 °F 24.4 °F 51% 30.05 in 10.0 mi South 3.5 mph - N/A   Clear
11:15 PM 41.5 °F - 24.8 °F 51% 30.05 in 10.0 mi Calm Calm - N/A   Clear
11:35 PM 40.8 °F 37.8 °F 24.4 °F 52% 30.04 in 10.0 mi SSW 4.6 mph - N/A   Clear
11:55 PM 40.8 °F 36.9 °F 24.8 °F 53% 30.04 in 10.0 mi SSW 5.8 mph - N/A   Clear